Simultaneous Nadir Overpasses (SNOs) Predictions

Prediction of SNOs over PacNW region [( 10.00, 139.50) to ( 22.70, 165.60)] between NOAA-19 and NPP Satellites:

Table of predicted SNOs over PacNW region for the next 30.0 days since TLE Epoch: 8/3/2012
Index Date (NOAA-19) Time (NOAA-19) NOAA-19 Lat,Lon Date (NPP) Time (NPP) NPP Lat,Lon Distance(km) Time Diff (sec)
1 08/09/2012 02:30:55 16.39, 162.90 08/09/2012 02:32:43 15.76, 160.15 302.31 108
2 08/09/2012 15:07:58 13.72, 158.43 08/09/2012 15:05:25 14.11, 156.64 197.88 153
3 08/21/2012 03:43:57 10.95, 145.56 08/21/2012 03:47:18 10.22, 142.38 357.38 201
4 08/21/2012 14:40:29 13.48, 165.28 08/21/2012 14:40:06 13.96, 162.92 259.96 23
5 08/21/2012 16:20:55 19.28, 141.15 08/21/2012 16:19:57 19.77, 138.93 238.92 58
6 08/22/2012 03:36:30 22.67, 145.43 08/22/2012 03:32:53 26.48, 143.20 479.93 217




NCC Satellite Simultaneous Nadir Overpasses (SNOs) Prediction Service
